Location: Newark
(32.9533°N, 113.4900°W)
Time: 16:35:26
(UTC+00:00)

N. Korean satellite - Pass Details

Date: 29 March 2019
Orbit: 457 x 508 km, 97.2° (Epoch: 22 April)

Event Time Altitude Azimuth Distance (km) Brightness Sun altitude
Rises 12:47:06 0° 32° (NNE) 2,558 10.9 -8.9°
Reaches altitude 10° 12:49:46 10° 54° (NE) 1,683 10.5 -8.4°
Maximum altitude 12:52:08 16° 95° (E) 1,336 10.1 -7.9°
Drops below altitude 10° 12:54:30 10° 136° (SE) 1,693 9.8 -7.4°
Sets 12:57:11 0° 157° (SSE) 2,579 10.4 -6.8°
